FENGYUN 1C DEB, 38789

Orbit data source: Space-Track

FENGYUN 1C DEB, 38789 is space debris in SSO originally from a launch on Mon, 10 May 1999 UTC launched from the Taiyaun Space Center, China (TSC). Fengyun 1C debris stems from the Chinese weather satellite Fengyun-1C, which was intentionally destroyed by a Chinese anti-satellite missile in 2007. This event dramatically increased the amount of space debris, with thousands of trackable fragments posing hazards to satellites and human spaceflight. The Fengyun 1C debris cloud has become a focal point in discussions about space sustainability and the need for international regulations to prevent the creation of new debris.

Loading next visibility...
Identifier
38789, 1999-025EUD
Orbit
SSO
Country
Flag of CNCN / PRC
Related business
Manufacturer
Unknown
Mission
Spacecraft
Bus & Motor
Unknown
Mass
Unknown
Launch date (UTC)
1999-05-10 (27 years ago)
Launch vehicle
Unknown
Launch site
Taiyaun Space Center, China (TSC)
Object type
Payload
Rocket body
Debris
Shape & HBR
Unknown shape, 0.1 m
Radar Cross Section
Small (<0.1 m²)

Expand to show TLE details & history
Last TLE update: 6 days ago

TLE from 6 days ago
0 FENGYUN 1C DEB
1 38789U 99025EUD 25343.93392657  .00004156  00000-0  90846-3 0  9997
2 38789  98.8559 229.8858 0207960  33.6569  29.0550 14.45777362618056
Epoch: 2025-12-09T22:24Z
TLE epoch observation values (Epoch: 2025-12-09T22:24:51.255Z)
Latitude
62.63102°
Longitude
157.34275°
Altitude
621.519 km
Speed
7.622 km/s
True Right ascension
14h 09m 52s
True Declination
62° 29' 15"
Sunlit
Object was in daylight at epoch
Visualization orbit readout
Latitude
Unknown
Longitude
Unknown
Altitude
Unknown
Speed
Unknown
Apparent Right ascension
Unknown
Apparent Declination
Unknown
Sunlit
N/A
Visualization observer readout
Local Sidereal Time
05:08:52
Azimuth
Unknown
Elevation
Unknown
Doppler factor
Unknown
Orbital elements
Apogee altitude
884.561 km
Perigee altitude
588.645 km
Semi-major axis
7,114.74 km
Eccentricity
0.0208
Inclination
98.8559°
RAAN
229.8858°
Arg. of periapsis
33.6569°
True anomaly
30.23912°
Mean anomaly
29.055°
Eccentric anomaly
29.64434°
Mean motion
3.61663 °/min
Orbital period
99.54 mins
BSTAR
0.00090846
Loading maneuver chart data...
Computing Atmospheric mass density...

Documentation

Showing up to 5 results
|